OPS 9845 (DMSP 5D-2 F6)

导读 | 星芒AI

OPS 9845(DMSP 5D-2 F6)是美国国防气象卫星计划(DMSP)中的一颗气象卫星,于1991年4月3日发射。该卫星由美国空军负责运营,主要用于收集气象、海洋和太空环境数据,支持军事行动和天气预报。搭载多种传感器,包括可见光和红外扫描仪,提供全球云层覆盖、温度和湿度信息。OPS 9845在轨运行多年,为军事和民用气象服务提供了重要支持,直至退役。

基本信息
目录编号:
13736
目录名称:
OPS 9845 (DMSP 5D-2 F6)
国际标识:
1982-118A
轨道中心:
EARTH
卫星名称:
OPS 9845 (DMSP 5D-2 F6)
卫星全名:
--
卫星状态:
在轨 (已飞行15700 天)
发射日期:
1982-12-21 UTC
国别 :
美国 (US)
星等 :
--
轨道信息
数据来源 国际轨道数据 AOE轨道数据
星历时间 2025-12-15T02:27:21+0800
23小时前
查看轨道信息
2025-12-11T22:00:00+0800
4天前
查看轨道信息
半长轴 7168.441km 7168.435km
偏心率 0.0008045 0.0007855
轨道倾角 98.588° 98.589°
近地点辐角 142.014° 151.201°
升交点赤经 173.626° 170.481°
平近点角 218.161° 13.708°
近地点 784.538km 784.669km
远地点 796.074km 795.931km
周期 100.669分钟 100.669分钟
每日圈数 14.304271 14.304288
详细信息
使用方式:
暂无
2D轨道图
3D轨道图
轨道高度分析图
轨道倾角分析图
轨道综合分析图
查看轨道综合分析图